TimeCST,TemperatureF,Dew PointF,Humidity,Sea Level PressureIn,VisibilityMPH,Wind Direction,Wind SpeedMPH,Gust SpeedMPH,PrecipitationIn,Events,Conditions,WindDirDegrees,DateUTC
12:54 AM,-11.9,-22.0,61,30.22,10.0,West,9.2,-,N/A,,Clear,280,2014-01-28 06:54:00
1:54 AM,-13.0,-22.0,64,30.21,10.0,West,8.1,-,N/A,,Clear,280,2014-01-28 07:54:00
2:54 AM,-14.1,-23.1,64,30.21,10.0,West,6.9,-,N/A,,Mostly Cloudy,270,2014-01-28 08:54:00
3:54 AM,-15.0,-23.1,67,30.20,10.0,WNW,8.1,-,N/A,,Clear,290,2014-01-28 09:54:00
4:54 AM,-15.0,-23.1,67,30.19,10.0,WNW,9.2,-,N/A,,Clear,290,2014-01-28 10:54:00
5:54 AM,-16.1,-24.0,67,30.18,10.0,West,8.1,-,N/A,,Clear,280,2014-01-28 11:54:00
6:54 AM,-17.0,-24.0,70,30.18,10.0,WSW,6.9,-,N/A,,Clear,250,2014-01-28 12:54:00
7:54 AM,-17.0,-24.0,70,30.18,10.0,West,8.1,-,N/A,,Clear,270,2014-01-28 13:54:00
8:54 AM,-14.1,-24.0,61,30.17,10.0,West,8.1,-,N/A,,Clear,280,2014-01-28 14:54:00
9:54 AM,-9.9,-22.0,55,30.17,10.0,West,10.4,-,N/A,,Clear,270,2014-01-28 15:54:00
10:54 AM,-6.0,-18.0,56,30.16,10.0,West,9.2,17.3,N/A,,Clear,280,2014-01-28 16:54:00
11:54 AM,-2.0,-17.0,49,30.12,10.0,West,15.0,23.0,N/A,,Clear,280,2014-01-28 17:54:00
12:54 PM,-0.9,-16.1,49,30.08,10.0,West,10.4,-,N/A,,Clear,270,2014-01-28 18:54:00
1:54 PM,1.0,-16.1,45,30.05,10.0,West,12.7,21.9,N/A,,Clear,260,2014-01-28 19:54:00
2:54 PM,1.0,-16.1,45,30.04,10.0,West,17.3,24.2,N/A,,Partly Cloudy,260,2014-01-28 20:54:00
3:54 PM,1.0,-15.0,47,30.03,10.0,WSW,12.7,18.4,N/A,,Overcast,250,2014-01-28 21:54:00
4:54 PM,-0.0,-15.0,49,30.02,10.0,WSW,13.8,21.9,N/A,,Mostly Cloudy,250,2014-01-28 22:54:00
5:54 PM,-0.9,-15.0,52,30.01,10.0,WSW,13.8,19.6,N/A,,Clear,250,2014-01-28 23:54:00
6:54 PM,-2.0,-17.0,49,29.99,10.0,West,13.8,26.5,N/A,,Clear,260,2014-01-29 00:54:00
7:54 PM,-2.0,-16.1,51,29.98,10.0,West,17.3,28.8,N/A,,Clear,270,2014-01-29 01:54:00
8:54 PM,-4.0,-16.1,56,29.96,10.0,West,11.5,23.0,N/A,,Mostly Cloudy,260,2014-01-29 02:54:00
9:54 PM,-4.0,-15.0,59,29.95,10.0,WSW,10.4,20.7,N/A,,Partly Cloudy,250,2014-01-29 03:54:00
10:54 PM,-4.0,-15.0,59,29.91,10.0,West,12.7,20.7,N/A,,Partly Cloudy,260,2014-01-29 04:54:00
11:54 PM,-2.9,-13.0,62,29.90,10.0,WSW,15.0,20.7,N/A,,Clear,250,2014-01-29 05:54:00